Location: Salerno
(40.6830°N, 14.7830°E)
Time: 10:14:25
(UTC+02:00)

ISS - Visible Passes

Search period start: 08 May 2021 00:00
Search period end: 18 May 2021 00:00
Orbit: 418 x 421 km, 51.6° (Epoch: 08 May)

Date Brightness Start Highest point End Pass type
(mag) Time Alt. Az. Time Alt. Az. Time Alt. Az.
08 May -1.1 02:49:24 17° NNW 02:49:27 17° NNW 02:51:45 10° NNE visible
08 May -0.8 04:25:34 10° NNW 04:27:19 13° N 04:29:04 10° NE visible
09 May -0.6 02:03:26 15° NNE 02:03:26 15° NNE 02:04:27 10° NNE visible
09 May -0.7 03:37:59 10° NNW 03:39:37 13° N 03:41:16 10° NNE visible
09 May -1.1 05:14:41 10° NNW 05:17:23 22° NNE 05:20:05 10° ENE visible
10 May -0.7 02:50:23 11° NNW 02:51:55 13° N 02:53:38 10° NNE visible
10 May -0.8 04:27:24 10° NNW 04:29:46 17° NNE 04:32:07 10° ENE visible
11 May -0.7 02:04:21 14° N 02:04:21 14° N 02:06:10 10° NNE visible
11 May -0.7 03:40:05 10° NNW 03:42:06 15° N 03:44:07 10° NE visible
11 May -2.3 05:16:21 10° NW 05:19:36 42° NNE 05:22:49 10° ESE visible
12 May -0.4 01:18:17 12° NNE 01:18:17 12° NNE 01:18:49 10° NNE visible
12 May -0.6 02:52:39 10° NNW 02:54:24 13° N 02:56:10 10° NE visible
12 May -1.6 04:29:03 10° NW 04:32:03 29° NNE 04:35:04 10° E visible
13 May -0.5 02:05:04 10° NNW 02:06:42 13° N 02:08:20 10° NNE visible
13 May -1.1 03:41:45 10° NNW 03:44:28 22° NNE 03:47:11 10° ENE visible
14 May -0.5 01:18:39 13° N 01:18:59 13° N 01:20:41 10° NNE visible
14 May -0.8 02:54:28 10° NNW 02:56:50 17° NNE 02:59:12 10° ENE visible
14 May -3.4 04:30:46 10° NW 04:34:08 68° NE 04:37:30 10° ESE visible
14 May -2.8 21:14:13 10° SSW 21:17:03 26° SE 21:19:55 10° ENE visible
14 May -2.3 22:50:35 10° W 22:53:45 38° NNW 22:55:40 20° NNE visible
15 May -0.5 00:29:20 10° NW 00:31:17 14° N 00:33:14 10° NNE visible
15 May -0.5 02:07:08 10° NNW 02:09:10 15° N 02:11:11 10° NE visible
15 May -2.5 03:43:25 10° NW 03:46:40 42° NNE 03:49:53 10° ESE visible
15 May -3.2 22:02:56 10° WSW 22:06:15 60° NNW 22:09:36 10° NE visible
15 May -0.7 23:41:20 10° WNW 23:43:36 17° NNW 23:45:52 10° NNE visible
16 May -0.4 01:19:43 10° NNW 01:21:29 13° N 01:23:14 10° NE visible
16 May -1.7 02:56:06 10° NW 02:59:07 29° NNE 03:02:07 10° E visible
16 May -3.3 04:32:48 10° WNW 04:35:59 39° SW 04:39:09 10° SSE visible
16 May -3.9 21:15:27 10° SW 21:18:49 81° SE 21:22:11 10° NE visible
16 May -1.0 22:53:21 10° WNW 22:55:58 20° NNW 22:58:34 10° NNE visible
17 May -0.4 00:32:08 10° NNW 00:33:45 13° N 00:35:23 10° NNE visible
17 May -1.2 02:08:49 10° NNW 02:11:32 22° NNE 02:14:14 10° ENE visible
17 May -3.9 03:45:15 10° WNW 03:48:37 70° SW 03:51:58 10° SE visible
17 May -1.5 22:05:26 10° W 22:08:21 27° NNW 22:11:17 10° NE visible
17 May -0.4 23:44:21 10° NW 23:46:02 13° N 23:47:44 10° NNE visible
